Погода в Спас-Клепиках

Россия / Рязанская область     55°07′51″N   40°10′32″E
темп.,
°C
ветер,
м/с
пор.,
м/с
влажн.,
%
обл.,
%
осадки,
мм/ч
давл.,
гПа
погр.,
м
18 апреля, вс
вс1800:00+8всв513577 0.0 1020497
03:00+6всв5126851 0.0 1020407
06:00+6всв41071100 0.0 1020483
09:00+6всв4971100 0.6 1020614
12:00+6всв3987100 3.8 1021579
15:00+7всв51082100 3.9 1022773
18:00+7всв51187100 0.3 1022926
21:00+8в51274100 0.8 10221015
19 апреля, пн
пн1900:00+7всв51179100 0.0 1022512
03:00+6всв51088100 0.0 1023520
06:00+5всв51092100 1.3 1023647
09:00+4всв51183100 1.4 1024812
12:00+6всв61181100 0.3 1024975
15:00+4всв61293100 2.0 1024913
18:00+5всв61275100 0.4 10241158
21:00+4в51174100 0.4 1024852
20 апреля, вт
вт2000:00+3всв51289100 0.0 1024847
03:00+3в51197100 0.1 1023772
06:00+3в51297100 0.0 1023625
09:00+5в51185100 0.0 1023696
12:00+6в61183100 0.0 1023833
15:00+5в61388100 0.1 1021764
18:00+8вюв71470100 0.0 10191119
21:00+8в81763100 0.1 10161206
21 апреля, ср
ср2100:00+5в92077100 1.8 10121303
03:00+4вюв82095100 8.1 10091393
06:00+5вюв81790100 0.4 1007937
09:00+6юв81890100 1.4 10061230
12:00+7юв71691100 0.3 10061429
15:00+8ююв71492100 1.8 10061482
18:00+6ююз71381100 0.4 10101313
21:00+6ююз71383100 0.5 10121270
22 апреля, чт
чт2200:00+6ююз61379100 0.0 10141374
03:00+5ююз512867 0.0 1016627
06:00+5юз4108995 0.0 1018553
09:00+8ююз487775 0.0 1020674
12:00+11ююз4657100 0.2 10211769
15:00+13ююз354899 0.3 10211930
18:00+11ю2664100 0.1 1023189
21:00+8ююв378054 0.1 1024131